User: anonymous   Login
Location: Unspecified
(0.0000°N, 0.0000°E)
Time: 19:03:55
(UTC+00:00)
Language:

Quakesat - Orbit

View from above orbital plane
View from above orbital plane
View from above satellite
View from above satellite

Ground track
Ground track

The orbit data is extracted from the following two-line orbital elements,

1 27845U 03031F   17084.92253818 +.00000106 +00000-0 +67567-4 0  9993
2 27845 098.6970 096.1883 0007798 247.7138 112.3213 14.22003462712338
Epoch (UTC): 25 March 2017 22:08:27
Eccentricity: 0.0007798
inclination: 98.6970°
perigee height: 813 km
apogee height: 824 km
right ascension of ascending node: 96.1883°
argument of perigee: 247.7138°
revolutions per day: 14.22003462
mean anomaly at epoch: 112.3213°
orbit number at epoch: 71233

The dashed part of the orbit path shows where the satellite is in the earth's shadow,  

DLR